This is the latest recevied weather packets stored in our database for station/object K3PPP. If no packets are shown the sender has not sent any weather packets the latest 10 day(s).
| Time | Temp. | Humidity | Pressure | Rain* | Wind** | Luminosity | Snow |
|---|---|---|---|---|---|---|---|
| 1777912893 | 17.22° C | 53% | 1011.7 hPa | 0 mm | - | 880 W/m² | - |
| 1777912590 | 16.67° C | 53% | 1011.7 hPa | 0 mm | - | 840 W/m² | - |
| 1777912287 | 17.22° C | 50% | 1011.9 hPa | 0 mm | - | 849 W/m² | - |
| 1777911982 | 17.22° C | 51% | 1011.8 hPa | 0 mm | - | 856 W/m² | - |
| 1777911673 | 17.22° C | 52% | 1012.1 hPa | 0 mm | - | 870 W/m² | - |
| 1777911370 | 17.22° C | 50% | 1011.9 hPa | 0 mm | - | 754 W/m² | - |
| 1777911068 | 17.22° C | 49% | 1012.1 hPa | 0 mm | - | 196 W/m² | - |
| 1777910765 | 17.22° C | 52% | 1012.2 hPa | 0 mm | - | 788 W/m² | - |
| 1777910461 | 17.22° C | 51% | 1012.2 hPa | 0 mm | - | 766 W/m² | - |
| 1777910157 | 16.67° C | 50% | 1012.1 hPa | 0 mm | - | 759 W/m² | - |
| 1777909856 | 16.67° C | 50% | 1012.2 hPa | 0 mm | - | 788 W/m² | - |
| 1777909552 | 16.67° C | 49% | 1012.6 hPa | 0 mm | - | 546 W/m² | - |
| 1777909249 | 16.67° C | 52% | 1012.4 hPa | 0 mm | - | 733 W/m² | - |
| 1777908947 | 16.11° C | 51% | 1012.6 hPa | 0 mm | - | 763 W/m² | - |
| 1777908646 | 16.11° C | 52% | 1012.5 hPa | 0 mm | - | 731 W/m² | - |
| 1777908342 | 15.56° C | 53% | 1012.9 hPa | 0 mm | - | 776 W/m² | - |
| 1777908038 | 15.56° C | 51% | 1012.9 hPa | 0 mm | - | 717 W/m² | - |
| 1777907733 | 15.56° C | 53% | 1012.8 hPa | 0 mm | - | 798 W/m² | - |
| 1777907428 | 15.56° C | 50% | 1012.7 hPa | 0 mm | - | 252 W/m² | - |
| 1777907125 | 16.11° C | 48% | 1012.5 hPa | 0 mm | - | 787 W/m² | - |
| 1777906823 | 15.56° C | 50% | 1012.7 hPa | 0 mm | - | 750 W/m² | - |
| 1777906520 | 15° C | 51% | 1012.7 hPa | 0 mm | - | 702 W/m² | - |
| 1777906215 | 15° C | 51% | 1012.5 hPa | 0 mm | - | 670 W/m² | - |
| 1777905912 | 15.56° C | 50% | 1012.7 hPa | 0 mm | - | 617 W/m² | - |
| 1777905609 | 15° C | 52% | 1012.5 hPa | 0 mm | - | 607 W/m² | - |
* Rain latest hour (hover to see other rain measurements)
** Current wind speed in m/s (hover to see current wind gust speed)